Skip Page Navigation
NASA JPL Caltech
NASA Logo - Jet Propulsion Laboratory + View the NASA Portal
+ Center for Near-Earth Object Studies
JPL Home Earth Solar System Stars & Galaxies Technology
JPL Solar System Dynamics
BODIES ORBITS EPHEMERIDES TOOLS PHYSICAL DATA DISCOVERY FAQ SITE MAP
IMPORTANT: The SSD Announcement email list is now available. Major changes are coming in the near future, including possible hostname and/or URL changes. To be notified of such changes, subscribe to this email list.

Please visit this page for more details.


JPL Small-Body Database Browser
Search: [ help ]  
268782 (2006 TB49)
Classification: Mars-crossing Asteroid          SPK-ID: 2268782
Ephemeris | Orbit Diagram | Orbital Elements | Mission Design | Physical Parameters | Discovery Circumstances | Close-Approach Data ]

[ show orbit diagram ]
Orbital Elements at Epoch 2458600.5 (2019-Apr-27.0) TDB
Reference: JPL 8 (heliocentric ecliptic J2000)
 Element Value Uncertainty (1-sigma)   Units 
e .2853630101388093 3.2561e-07  
a 2.315917562096122 2.0749e-08 au
q 1.65504035534304 7.6656e-07 au
i 3.346892540858549 6.0605e-06 deg
node 302.8623122860649 0.00011443 deg
peri 85.49014737567252 0.00013603 deg
M 201.2363853954077 5.1396e-05 deg
tp 2459168.216541309711
(2020-Nov-14.71654131)
0.00019085 TDB
period 1287.309786820539
3.52
1.73e-05
4.736e-08
d
yr
n .2796529659648946 3.7583e-09 deg/d
Q 2.976794768849205 2.667e-08 au
  Orbit Determination Parameters
   # obs. used (total)      185  
   data-arc span      6679 days (18.29 yr)  
   first obs. used      1999-10-12  
   last obs. used      2018-01-24  
   planetary ephem.      DE431  
   SB-pert. ephem.      SB431-N16  
   condition code      0  
   norm. resid. RMS      .61801  
   source      ORB  
   producer      Otto Matic  
   solution date      2018-Feb-06 08:46:14  

Additional Information
 Earth MOID = .663447 au 
 Jupiter MOID = 2.4901 au 
 T_jup = 3.523 
[ show covariance matrix ]

Ephemeris | Orbit Diagram | Orbital Elements | Mission Design | Physical Parameters | Discovery Circumstances | Close-Approach Data ]

Physical Parameter Table
Parameter Symbol Value Units Sigma Reference Notes
absolute magnitude H 17.7   n/a MPO437235  

268782 (2006 TB49)          Discovered 2006-Oct-12 by NEAT at Palomar
Reference: 20110319/Numbers.arcLast Updated: 2011-03-23

[ show close-approach data ]
Alternate Designations
 2006 TB49 = 1999 VS201 
Ephemeris | Orbit Diagram | Orbital Elements | Mission Design | Physical Parameters | Discovery Circumstances | Close-Approach Data ]
ABOUT SSD CREDITS/AWARDS PRIVACY/COPYRIGHT GLOSSARY LINKS
FirstGov 2020-Jan-18 10:37 UT
(server date/time)  
NASA Home Page
Site Manager:   Ryan S. Park
Webmaster  Alan B. Chamberlin